Location: ????????
(60.4333°N, 46.4710°E)
Time: 04:33:32
(UTC+00:00)

Cosmos 2237 - Pass Details

Date: 25 November 2020
Orbit: 845 x 856 km, 70.8° (Epoch: 19 January)

Event Time Altitude Azimuth Distance (km) Brightness Sun altitude
Rises 12:49:25 0° 204° (SSW) 3,399 8.5 -5.4°
Reaches altitude 10° 12:51:52 10° 201° (SSW) 2,468 7.6 -5.6°
Maximum altitude 12:57:27 62° 122° (ESE) 952 4.4 -6.2°
Drops below altitude 10° 13:03:05 10° 43° (NE) 2,488 6.0 -6.8°
Enters shadow 13:03:46 - 42° (NE) 2,745 6.2 -6.9°
